Track ONEWEB-0190 now! 10-day predictions ONEWEB-0190 is classified as:
1 48796U 21045AF 22141.25001157 -.00040868 00000-0 -10904+0 0 9998 2 48796 87.9173 195.1105 0001423 52.5573 309.1743 13.15572154 1316